Weather reports worldwide

Advertisment
Castlederg, United Kingdom (3904): temperature & dewpoint: 13.01.2019 11:00:00 - 19.01.2019 11:00:00 (GMT)Castlederg, United Kingdom (3904): temperature -20cm: 13.01.2019 11:00:00 - 19.01.2019 11:00:00 (GMT)Castlederg, United Kingdom (3904): wind speed & gusts: 13.01.2019 11:00:00 - 19.01.2019 11:00:00 (GMT)Castlederg, United Kingdom (3904): wind direction: 13.01.2019 11:00:00 - 19.01.2019 11:00:00 (GMT)Castlederg, United Kingdom (3904): reduced air pressure: 13.01.2019 11:00:00 - 19.01.2019 11:00:00 (GMT)Castlederg, United Kingdom (3904): visibility: 13.01.2019 11:00:00 - 19.01.2019 11:00:00 (GMT)Castlederg, United Kingdom (3904): precipitation: 13.01.2019 11:00:00 - 19.01.2019 11:00:00 (GMT)
Date & Time tt [°C] td [°C] tt -20cm [°C] ff [km/h] ff [kn] fx [km/h] fx [kn] dd ppp [hPa] vv [km] rr [mm]
19.01.2019 11:00:00 5,5 5,1 - 0 0 - - N 1006,0 9 0,0
19.01.2019 10:00:00 5,0 4,6 - 4 2 - - ENE 1005,6 9 0,0
19.01.2019 09:00:00 4,7 4,2 6,2 4 2 - - ENE 1005,0 9 0,0
19.01.2019 08:00:00 4,6 4,1 - 5 3 - - E 1004,3 13 0,0
19.01.2019 07:00:00 4,5 4,0 - 5 3 - - ENE 1003,7 14 0,0
19.01.2019 06:00:00 4,0 3,3 - 5 3 - - ENE 1003,3 14 0,0
19.01.2019 05:00:00 4,9 4,2 - 2 1 - - E 1003,2 18 0,0
19.01.2019 04:00:00 5,4 4,8 - 8 4 - - SE 1003,1 15 0,0
19.01.2019 03:00:00 5,4 4,4 - 4 2 - - ESE 1002,9 40 0,0
19.01.2019 02:00:00 5,8 4,9 - 9 5 - - SE 1002,8 50 0,0
19.01.2019 01:00:00 5,2 4,6 - 5 3 - - E 1002,6 25 0,0
19.01.2019 00:00:00 5,3 4,6 - 5 3 - - ESE 1002,7 19 0,0
18.01.2019 23:00:00 6,0 5,3 - 9 5 - - ESE 1002,6 5 0,0
18.01.2019 22:00:00 5,7 5,1 - 9 5 - - ESE 1002,3 17 0,2
18.01.2019 21:00:00 6,0 5,4 - 13 7 - - SE 1002,2 12 0,0
18.01.2019 20:00:00 5,9 5,2 - 9 5 - - E 1002,4 16 0,0
18.01.2019 19:00:00 6,0 5,3 - 11 6 - - SE 1002,3 12 0,0
18.01.2019 18:00:00 6,1 5,3 - 13 7 - - SE 1002,4 16 0,0
18.01.2019 17:00:00 6,1 5,1 - 9 5 - - ESE 1002,3 30 0,0
18.01.2019 16:00:00 6,5 5,1 - 8 4 - - SSE 1002,6 45 0,0
18.01.2019 15:00:00 6,6 5,2 - 8 4 - - ESE 1002,7 40 0,0
18.01.2019 14:00:00 6,1 4,7 - 13 7 - - SSE 1003,3 45 0,0
18.01.2019 13:00:00 6,7 5,5 - 9 5 - - SE 1003,3 45 0,0
18.01.2019 12:00:00 5,1 4,3 - 16 9 - - SE 1004,0 13 0,0
18.01.2019 11:00:00 4,3 3,6 - 8 4 - - ESE 1004,5 45 0,0
18.01.2019 10:00:00 3,2 2,7 - 15 8 - - SE 1004,5 30 0,4
18.01.2019 09:00:00 2,8 2,0 5,9 16 9 - - SE 1004,7 12 0,4
18.01.2019 08:00:00 2,0 1,4 - 16 9 - - SE 1004,7 19 0,8
18.01.2019 07:00:00 1,5 1,0 - 22 12 - - SE 1005,2 14 0,8
18.01.2019 06:00:00 1,2 0,6 - 18 10 - - ESE 1006,2 9 1,4
18.01.2019 05:00:00 1,1 0,2 - 16 9 - - SE 1007,5 7 0,6
18.01.2019 04:00:00 2,6 -1,1 - 16 9 - - SE 1008,5 29 0,0
18.01.2019 03:00:00 2,3 -1,3 - 16 9 - - SSE 1009,4 30 0,0
18.01.2019 02:00:00 1,4 -0,9 - 5 3 - - E 1010,4 27 0,0
18.01.2019 01:00:00 1,1 -0,8 - 9 5 - - E 1011,4 26 0,0
18.01.2019 00:00:00 1,0 -0,7 - 9 5 - - SE 1012,3 25 0,0
17.01.2019 23:00:00 1,0 -0,6 - 9 5 - - E 1013,2 22 0,0
17.01.2019 22:00:00 0,7 -0,6 - 8 4 - - SE 1014,1 21 0,0
17.01.2019 21:00:00 0,2 -0,6 - 5 3 - - E 1015,0 15 0,0
17.01.2019 20:00:00 0,1 -0,5 - 4 2 - - E 1015,7 9 0,0
17.01.2019 19:00:00 0,2 -0,5 - 5 3 - - ENE 1016,2 13 0,0
17.01.2019 18:00:00 0,8 0,0 - 2 1 - - ENE 1016,7 2,5 0,0
17.01.2019 17:00:00 1,4 0,3 - 2 1 - - NW 1017,1 12 0,0
17.01.2019 16:00:00 2,2 0,7 - 4 2 - - E 1016,8 21 0,0
17.01.2019 15:00:00 3,5 1,1 - 4 2 - - WNW 1017,0 18 0,0
17.01.2019 14:00:00 3,5 1,0 - 5 3 - - W 1017,5 22 0,0
17.01.2019 13:00:00 2,6 0,9 - 2 1 - - SE 1017,6 30 0,0
17.01.2019 12:00:00 2,3 0,0 - 9 5 - - W 1018,1 29 0,2
17.01.2019 11:00:00 1,7 -0,3 - 4 2 - - W 1018,3 25 0,0
17.01.2019 10:00:00 1,5 -0,2 - 5 3 - - WNW 1017,9 25 0,0
17.01.2019 09:00:00 0,3 -1,5 6,7 5 3 - - W 1017,2 27 0,0
17.01.2019 08:00:00 1,5 -1,1 - 8 4 - - NW 1016,6 23 0,0
17.01.2019 07:00:00 0,0 -1,7 - 8 4 - - W 1015,7 28 0,0
17.01.2019 06:00:00 1,8 -1,6 - 4 2 - - NW 1014,8 30 0,0
17.01.2019 05:00:00 2,4 -1,5 - 5 3 - - NNW 1014,0 30 0,0
17.01.2019 04:00:00 2,6 -0,7 - 9 5 - - NW 1013,1 30 0,0
17.01.2019 03:00:00 2,5 -0,6 - 15 8 - - NW 1012,2 40 0,0
17.01.2019 02:00:00 2,3 -1,8 - 13 7 - - NW 1011,4 30 0,0
17.01.2019 01:00:00 2,8 -2,7 - 13 7 - - N 1010,3 35 0,0
17.01.2019 00:00:00 3,8 0,1 - 18 10 - - N 1008,9 29 0,4
16.01.2019 23:00:00 3,1 2,4 - 5 3 - - NNW 1007,2 27 0,6
16.01.2019 22:00:00 2,3 1,5 - 4 2 - - N 1005,2 25 0,4
16.01.2019 21:00:00 2,1 1,4 - 5 3 - - NW 1002,7 12 0,2
16.01.2019 20:00:00 2,2 1,6 - 4 2 - - NW 1001,6 20 0,0
16.01.2019 19:00:00 1,9 1,2 - 8 4 - - W 1001,1 9 0,0
16.01.2019 18:00:00 2,3 1,5 - 4 2 - - W 1001,1 19 0,0
16.01.2019 17:00:00 2,9 2,0 - 4 2 - - W 1000,7 40 0,2
16.01.2019 16:00:00 3,6 2,2 - 5 3 - - WSW 1000,1 35 0,0
16.01.2019 15:00:00 3,5 2,1 - 9 5 - - WSW 999,9 50 0,4
16.01.2019 14:00:00 4,9 3,3 - 18 10 - - WSW 999,6 5 0,2
16.01.2019 13:00:00 4,5 2,8 - 11 6 - - WSW 999,7 50 2,0
16.01.2019 12:00:00 4,6 3,4 - 9 5 - - W 999,8 4,4 0,6
16.01.2019 11:00:00 4,1 2,0 - 5 3 - - W 1000,0 50 0,0
16.01.2019 10:00:00 3,7 2,0 - 8 4 - - SW 1000,4 40 0,0
16.01.2019 09:00:00 3,8 1,9 7,7 18 10 - - SW 1000,3 45 0,0
16.01.2019 08:00:00 4,0 2,0 - 15 8 - - W 1000,1 9 0,0
16.01.2019 07:00:00 4,5 2,4 - 11 6 - - W 1000,1 35 0,0
16.01.2019 06:00:00 3,9 2,7 - 11 6 - - WSW 1000,0 40 0,2
16.01.2019 05:00:00 5,6 3,3 - 22 12 46 25 WSW 1000,5 10 0,2
16.01.2019 04:00:00 6,0 4,1 - 15 8 - - WSW 1000,1 45 0,2
16.01.2019 03:00:00 6,8 5,6 - 18 10 - - WSW 1000,3 10 0,2
16.01.2019 02:00:00 6,5 5,0 - 21 11 - - WSW 1000,3 50 0,2
16.01.2019 01:00:00 7,2 5,5 - 18 10 - - W 1000,7 45 0,4
16.01.2019 00:00:00 8,5 6,8 - 24 13 - - SSW 1000,5 10 0,0
15.01.2019 23:00:00 8,7 6,2 - 15 8 - - S 1001,7 50 0,0
15.01.2019 22:00:00 8,4 6,3 - 16 9 - - SSW 1002,8 50 0,0
15.01.2019 21:00:00 8,4 6,4 - 18 10 - - SSW 1003,7 50 0,0
15.01.2019 20:00:00 8,2 6,9 - 18 10 - - SW 1004,7 50 0,0
15.01.2019 19:00:00 9,4 6,9 - 24 13 - - SSW 1005,4 50 0,0
15.01.2019 18:00:00 9,4 6,7 - 22 12 - - SW 1006,2 50 0,0
15.01.2019 17:00:00 9,3 6,3 - 21 11 - - SSW 1007,0 50 0,0
15.01.2019 16:00:00 9,4 6,7 - 24 13 - - SW 1007,8 50 0,0
15.01.2019 15:00:00 9,5 7,9 - 26 14 - - SW 1008,2 50 0,0
15.01.2019 14:00:00 9,2 8,0 - 26 14 - - SW 1009,4 7 0,0
15.01.2019 13:00:00 9,4 7,4 - 22 12 - - SW 1010,5 50 0,0
15.01.2019 12:00:00 9,2 7,1 - 24 13 - - SSW 1011,8 50 0,0
15.01.2019 11:00:00 9,1 5,7 - 21 11 - - SSW 1012,5 50 0,0
15.01.2019 10:00:00 8,8 5,7 - 13 7 - - WSW 1013,2 50 0,0
15.01.2019 09:00:00 9,1 6,0 7,7 18 10 - - SW 1013,5 50 0,0
15.01.2019 08:00:00 8,9 6,4 - 21 11 - - SW 1013,7 50 0,0
15.01.2019 07:00:00 8,7 6,7 - 11 6 - - SW 1014,3 45 0,0
15.01.2019 06:00:00 9,0 6,8 - 13 7 - - SW 1014,8 40 0,0
15.01.2019 05:00:00 8,9 7,0 - 11 6 - - SW 1015,4 40 0,0
15.01.2019 04:00:00 9,1 7,2 - 15 8 - - W 1016,0 35 0,0
15.01.2019 03:00:00 9,2 7,6 - 22 12 - - SW 1016,6 30 0,0
15.01.2019 02:00:00 9,2 7,7 - 28 15 - - WSW 1016,9 30 0,0
15.01.2019 01:00:00 8,8 7,5 - 18 10 - - WSW 1017,4 30 0,0
15.01.2019 00:00:00 8,8 7,4 - 24 13 - - WSW 1017,8 30 0,0
14.01.2019 23:00:00 8,6 7,5 - 21 11 - - WSW 1018,1 35 0,0
14.01.2019 22:00:00 8,3 7,4 - 22 12 - - WSW 1018,0 50 0,2
14.01.2019 21:00:00 8,3 7,8 - 11 6 - - WSW 1018,7 7 0,2
14.01.2019 20:00:00 8,4 7,7 - 21 11 - - WSW 1018,8 29 0,2
14.01.2019 19:00:00 8,7 7,4 - 22 12 - - WSW 1019,1 35 0,0
14.01.2019 18:00:00 8,4 7,3 - 18 10 - - SW 1019,5 24 0,0
14.01.2019 17:00:00 7,8 6,8 - 18 10 - - SW 1019,7 14 0,0
14.01.2019 16:00:00 7,9 6,9 - 16 9 - - WSW 1020,1 17 0,0
14.01.2019 15:00:00 7,5 6,7 - 16 9 - - WSW 1020,7 7 0,0
14.01.2019 14:00:00 8,2 6,0 - 21 11 - - WSW 1021,2 35 0,0
14.01.2019 13:00:00 8,3 5,2 - 9 5 - - WSW 1021,7 35 0,0
14.01.2019 12:00:00 7,9 4,5 - 13 7 - - WSW 1022,1 35 0,0
14.01.2019 11:00:00 6,5 5,5 - 8 4 - - W 1022,4 30 0,2
14.01.2019 10:00:00 6,0 5,0 - 9 5 - - WSW 1022,5 4,1 0,2
14.01.2019 09:00:00 5,1 3,2 7,5 9 5 - - WSW 1022,2 28 0,0
14.01.2019 08:00:00 6,2 3,4 - 8 4 - - WNW 1021,8 30 0,0
14.01.2019 07:00:00 5,9 3,0 - 13 7 - - W 1021,7 30 0,0
14.01.2019 06:00:00 6,9 4,3 - 13 7 - - W 1021,6 30 0,0
14.01.2019 05:00:00 6,6 4,6 - 11 6 - - W 1021,4 30 0,0
14.01.2019 04:00:00 6,9 4,6 - 9 5 - - W 1021,2 28 0,0
14.01.2019 03:00:00 6,8 3,8 - 9 5 - - W 1020,7 29 0,0
14.01.2019 02:00:00 6,6 3,0 - 11 6 - - W 1020,1 30 0,0
14.01.2019 01:00:00 6,8 4,0 - 9 5 - - WNW 1019,8 28 0,0
14.01.2019 00:00:00 6,6 3,9 - 11 6 - - W 1019,6 30 0,0
13.01.2019 23:00:00 7,4 3,8 - 16 9 - - WNW 1019,0 30 0,0
13.01.2019 22:00:00 6,9 3,7 - 16 9 - - W 1018,4 24 0,0
13.01.2019 21:00:00 7,3 4,2 - 21 11 - - W 1018,0 25 0,0
13.01.2019 20:00:00 7,9 4,0 - 21 11 - - W 1017,9 26 0,0
13.01.2019 19:00:00 8,2 3,9 - 21 11 - - WNW 1016,9 25 0,0
13.01.2019 18:00:00 8,4 3,1 - 13 7 48 26 WNW 1016,4 24 0,2
13.01.2019 17:00:00 8,4 3,4 - 16 9 52 28 W 1015,9 23 0,0
13.01.2019 16:00:00 8,3 5,7 - 24 13 52 28 W 1015,5 17 0,0
13.01.2019 15:00:00 9,4 4,3 - 29 16 50 27 WNW 1014,7 29 0,0
13.01.2019 14:00:00 9,3 6,0 - 18 10 55 30 WNW 1014,7 18 0,0
13.01.2019 13:00:00 10,3 5,4 - 31 17 57 31 W 1014,5 27 0,2
13.01.2019 12:00:00 10,4 6,7 - 28 15 65 35 WNW 1014,4 5 0,0
13.01.2019 11:00:00 10,7 7,0 - 24 13 54 29 WNW 1014,2 35 0,0

tt = temperature
td = dewpoint
tt -20cm = temperature -20cm
ff = wind speed
fx = gusts
dd = wind direction
ppp = reduced air pressure
vv = visibility
rr = precipitation

Next stations